Regional Weather Roundup
Issued by NWS Green Bay, WI

Home | Current Version | Previous Version | Text Only | Print | Product List | Glossary On
Versions: 1 2 3 4 5 6 7 8 9 10 11 12 13 14 15 16 17 18 19 20 21 22 23 24 25 26 27 28 29 30 31 32 33 34 35 36 37 38 39 40 41 42 43 44 45 46 47 48 49 50
000
ASUS43 KGRB 200700
RWRGRB

NORTH-CENTRAL AND NORTHEAST WISCONSIN REGIONAL WEATHER ROUNDUP
NATIONAL WEATHER SERVICE GREEN BAY WI
100 AM CST SAT JAN 20 2018

WIZ005-009-010>012-018-019-200800-
NORTH CENTRAL WISCONSIN

CITY           SKY/WX    TMP DP  RH WIND       PRES   REMARKS
IRONWOOD       FAIR      32  26  78 W9        29.63R
MANITOWISH WTR NOT AVBL
ARBOR VITAE    NOT AVBL
EAGLE RIVER    FAIR      27  22  82 W5        29.59R
LAND O LAKES   NOT AVBL
RHINELANDER    FAIR      28  24  85 W7        29.62R
PHILLIPS       FAIR      27  26  95 SW3       29.64R
ANTIGO         NOT AVBL
TOMAHAWK       NOT AVBL
MERRILL        FAIR      31  28  87 SW6       29.64R
$$

WIZ013-073-200800-
NORTHEAST WISCONSIN

CITY           SKY/WX    TMP DP  RH WIND       PRES   REMARKS
IRON MOUNTAIN  FAIR      35  26  69 W9        29.55R
MARINETTE      FAIR      37  28  70 W8        29.61R
$$

WIZ017-030-035>037-045-200800-
CENTRAL WISCONSIN

CITY           SKY/WX    TMP DP  RH WIND       PRES   REMARKS
MEDFORD        NOT AVBL
WAUSAU         FAIR      34  28  79 W6        29.64R
MOSINEE        NOT AVBL
MARSHFIELD     FAIR      32  28  85 W5        29.65R
WISC RAPIDS    FAIR      33  26  75 SW5       29.69R
STEVENS POINT  NOT AVBL
WAUPACA        NOT AVBL
SHAWANO        FAIR      37  29  71 SW5       29.64R
CLINTONVILLE   NOT AVBL
WAUTOMA        FAIR      31  26  82 W3        29.69R
$$

WIZ038-039-048-051-200800-
FOX VALLEY

CITY           SKY/WX    TMP DP  RH WIND       PRES   REMARKS
NWS GREEN BAY  FAIR      35  27  72 SW6       29.65R
APPLETON       NOT AVBL
OSHKOSH        FAIR      36  27  69 W6        29.67R
FOND DU LAC    FAIR      35  26  69 SW5       29.69R
$$

WIZ022-050-052-200800-
EAST CENTRAL WISCONSIN

CITY           SKY/WX    TMP DP  RH WIND       PRES   REMARKS
EPHRAIM        NOT AVBL
WASHINGTON ISL NOT AVBL
STURGEON BAY   FAIR      37  28  70 W15       29.62R
MANITOWOC      FAIR      38  28  67 W12G22    29.66R
SHEBOYGAN      FAIR      37  29  72 W14       29.67R
$$

LMZ563-521-522-541>543-200800-
LAKESHORE

STATION/POSITION TIME  TEMP    WIND        PRES    VSBY  WAVE
                       AIR SEA DIR/SP/G                  HT/PER
                 (UTC) (F)     (DEG/KT/KT) (MB)    (MI)  (FT/S)
SHEBOYGAN LKSHOR 0600   40     240/ 11/ 13 1004.9R
KEWAUNEE LKSHORE 0630   39     280/ 11/ 15 1002.6R
NORTHPORT PIER   0640   38     260/  4/ 20 1001.7R
MENOMINEE LKSHOR 0630   38     240/ 12/ 14 1001.9S
$$




USA.gov is the U.S. government's official web portal to all federal, state and local government web resources and services.